RH
91 85 81 78 59 43 46 48 47 57 62 80 91 91 62 56 64 62 69 64 61 60 64 68 70 67 63 63 62 70 64 75 88 86 70 71 78 82 83 82 83 79 86 84
90 84 81 77 62 49 57 69 68 47 51 74 85 74 72 64 64 65 72 68 63 57 63 67 66 65 62 67 67 75 72 81 84 60 69 80 87 85 82 76 82 93 90 74
89 85 81 76 66 48 46 63 63 65 83 81 72 68 69 70 65 67 67 64 60 62 67 65 67 66 67 69 66 65 65 82 69 57 49 76 94 91 87 78 96 84 76 66
86 85 82 76 68 45 38 76 68 70 81 70 70 62 67 69 71 67 67 66 69 66 71 70 73 67 75 74 70 78 76 91 92 88 82 80 76 73 90 92 75 83 54 67
85 84 85 77 70 49 48 59 60 67 75 69 61 65 71 66 62 69 69 70 60 70 67 62 62 67 70 69 88 86 86 84 92 96 78 80 88 80 78 76 82 79 72 72
84 84 88 86 77 56 61 75 69 60 61 68 59 54 54 58 60 59 55 66 65 72 71 64 54 57 55 56 85 92 95 97 90 87 75 78 60 61 61 72 73 68 78 54
84 82 90 92 86 80 60 64 69 64 56 70 61 54 58 56 61 62 58 64 60 51 54 53 54 62 66 70 77 82 96 89 86 95 76 53 31 43 48 59 62 56 54 47
86 89 94 94 90 87 78 62 63 70 64 66 57 52 58 53 51 62 62 61 59 58 50 60 50 43 42 74 86 90 81 85 80 92 94 69 38 42 56 54 41 54 54 49
93 94 94 95 98 95 96 79 61 63 67 74 48 52 48 55 56 55 52 61 63 58 66 59 56 41 32 44 88 91 83 78 70 96 99 71 28 31 48 46 27 16 53 51
93 98 95 96 100 99 100 92 70 64 76 67 53 60 52 53 56 56 54 62 69 63 79 76 75 60 46 46 79 96 90 90 90 75 82 77 57 44 42 34 17 24 52 52
92 100 95 97 100 99 100 97 88 66 79 73 63 54 53 58 57 56 55 62 72 82 83 80 75 77 61 58 65 87 86 88 88 77 84 89 57 53 43 31 25 28 39 37
96 96 94 99 99 100 100 100 99 88 86 83 68 61 61 46 47 54 57 61 67 73 79 81 75 79 82 67 59 77 78 67 82 73 67 49 54 50 44 41 43 45 43 44
98 99 98 100 100 100 100 100 99 96 96 91 90 85 70 68 67 64 74 66 56 70 72 88 97 99 77 82 82 61 71 64 71 69 53 47 43 46 44 44 46 40 37 41
87 89 89 89 90 91 96 100 98 97 94 100 88 75 70 63 62 62 62 58 65 71 81 91 98 99 76 85 68 66 52 65 66 67 53 43 40 36 34 36 37 43 43 47
68 73 75 77 80 82 88 93 99 99 89 99 94 82 71 81 72 69 69 68 68 84 93 98 98 98 86 85 90 93 57 52 56 57 41 40 39 42 45 43 44 43 46 47
71 63 57 54 58 69 78 95 99 99 100 100 99 78 86 81 74 76 78 79 78 84 98 98 98 87 86 99 96 69 58 52 48 52 43 44 43 43 44 48 46 46 51 50
75 76 71 61 54 56 85 92 100 100 93 97 96 99 90 80 82 90 91 84 86 86 95 99 98 97 93 99 91 60 55 50 47 46 54 59 52 52 48 50 50 52 53 53
52 52 66 66 59 55 74 62 69 88 95 98 100 97 98 86 94 92 94 97 94 92 97 99 99 97 98 98 70 57 54 53 58 53 51 53 55 62 60 56 59 63 60 56
56 57 61 72 86 91 79 92 97 98 98 100 94 99 94 92 92 95 98 98 99 91 98 98 98 98 97 81 78 70 66 68 67 69 70 71 71 71 67 68 68 70 61 58
55 77 72 83 78 89 84 100 99 100 99 100 98 91 94 93 98 96 95 99 94 98 91 95 98 80 67 64 67 65 68 74 76 81 81 75 73 67 65 62 59 62 64 65
83 83 88 79 73 91 92 80 96 97 99 96 82 92 88 90 97 91 95 97 97 98 86 96 91 91 83 77 75 75 76 73 68 65 68 65 67 66 65 67 69 72 71 73
90 91 88 86 82 95 89 96 97 98 95 94 83 84 80 86 86 92 98 98 98 97 86 98 98 84 80 93 90 93 90 86 83 76 74 67 64 66 74 76 75 70 68 68
84 94 96 94 91 98 97 99 96 93 96 97 92 93 97 98 98 100 99 99 94 93 98 92 88 80 96 100 96 90 87 76 77 80 77 76 72 68 66 75 70 68 71 63
94 82 85 88 91 96 92 93 93 91 98 94 88 93 98 98 98 95 92 93 98 100 99 92 90 87 99 100 98 97 79 76 82 80 77 73 67 73 68 67 67 70 67 66
96 94 90 96 88 96 96 98 97 95 90 95 98 99 98 98 94 96 96 99 97 90 91 89 95 98 99 99 94 92 94 77 68 75 81 84 82 80 73 66 69 70 66 64
98 98 96 96 98 98 100 100 98 97 90 90 97 95 99 95 93 90 88 88 87 85 96 96 98 98 94 93 87 83 87 86 78 82 88 88 86 78 71 70 71 65 64 70
98 93 96 95 96 91 93 85 79 82 95 90 87 96 81 93 97 96 94 98 90 78 68 83 96 95 78 74 72 70 83 90 86 87 82 84 79 81 83 77 64 68 69 70
Wind_Speed
28 28 30 33 35 32 10 2 3 5 3 4 2 2 4 2 2 1 3 2 1 4 2 2 1 2 4 5 4 3 1 3 3 8 1 2 3 5 5 3 4 3 1 9
25 26 28 29 33 28 7 2 2 4 2 4 2 1 3 1 3 2 2 2 3 1 2 1 2 2 2 5 4 5 4 0 3 4 3 3 3 4 4 2 2 7 5 6
22 25 25 26 29 24 6 2 4 4 4 1 6 4 1 3 0 2 3 2 2 2 3 2 2 2 1 4 4 4 4 3 6 5 4 3 4 5 7 6 4 4 11 9
18 22 22 22 26 20 5 4 0 3 3 4 3 2 4 2 2 1 3 2 4 4 4 4 4 4 2 1 4 3 5 4 4 6 9 6 13 14 10 16 18 10 1 12
16 19 19 19 22 16 7 2 2 2 1 3 1 3 4 5 2 5 3 3 2 5 5 7 7 5 4 5 1 5 1 3 3 5 5 6 9 16 18 21 20 20 22 29
13 14 15 16 17 12 5 3 2 3 2 2 1 1 2 2 1 3 3 5 3 3 10 7 6 5 3 4 8 7 5 4 1 5 3 8 9 8 14 8 6 19 17 27
11 11 10 11 13 13 4 2 3 3 2 1 2 2 1 2 3 2 0 4 4 1 3 2 1 1 3 5 6 4 6 4 2 4 6 3 5 4 8 13 9 18 15 20
9 9 7 7 8 7 5 2 1 2 1 2 4 2 3 4 3 3 3 4 3 0 3 2 5 3 3 0 2 4 2 4 2 2 2 9 5 1 4 6 6 14 20 18
9 7 7 5 5 4 3 2 1 2 3 4 2 1 2 2 1 3 2 1 1 3 2 2 3 4 3 2 0 5 3 2 6 2 2 6 4 1 3 1 5 4 11 13
9 8 6 6 5 4 3 3 3 2 1 3 4 3 2 2 1 2 2 0 1 2 2 3 4 4 3 4 5 5 4 3 12 10 6 9 9 7 2 2 4 2 5 7
7 8 6 5 6 5 5 3 5 4 3 4 6 3 4 2 2 2 1 1 0 2 3 3 4 4 4 2 4 6 8 7 5 6 5 11 7 5 7 4 2 2 4 5
4 4 6 6 5 6 7 4 5 9 4 4 8 15 16 14 8 3 2 1 3 3 1 2 1 3 2 4 3 0 3 7 5 10 8 4 6 5 6 4 6 6 5 10
1 2 3 3 2 3 4 4 5 4 1 4 2 5 7 11 18 19 3 3 4 4 3 2 3 6 3 4 6 6 5 5 4 0 9 21 19 15 12 8 14 15 15 11
2 2 3 3 1 1 4 5 6 4 2 2 5 4 9 6 10 15 28 11 4 3 3 4 3 3 5 3 4 4 3 5 5 8 11 18 19 18 18 16 12 9 9 8
4 4 5 5 5 4 5 10 13 14 5 2 3 8 15 9 9 10 11 14 5 3 2 3 3 2 3 3 2 4 5 13 13 16 19 14 12 8 7 7 11 15 15 16
6 5 4 5 5 5 3 3 2 8 14 1 3 2 3 3 1 5 6 6 3 3 4 3 3 4 3 4 5 4 16 21 27 23 19 18 21 17 15 17 16 14 10 14
7 7 7 7 5 4 3 3 0 4 3 1 4 3 1 0 1 1 0 3 2 3 2 3 3 4 6 3 12 22 17 22 20 16 8 13 16 17 15 15 18 21 20 19
9 9 10 10 10 8 8 9 10 8 2 2 3 3 3 3 1 2 1 2 1 3 2 2 3 1 3 5 21 15 16 17 14 17 15 15 11 11 10 14 12 14 15 14
9 9 9 7 3 4 3 4 5 9 6 2 3 2 4 2 1 0 1 2 3 2 3 3 4 3 6 12 5 6 6 7 9 9 8 8 6 10 10 10 10 9 14 14
8 3 1 2 2 5 6 3 3 2 2 2 3 2 4 4 2 2 1 2 3 3 5 3 4 8 16 12 9 10 11 8 7 6 7 5 7 6 7 10 10 10 12 13
2 3 0 3 8 3 2 2 3 3 3 3 4 6 6 3 4 3 4 2 2 3 4 6 4 4 3 7 7 7 8 7 6 3 4 5 7 8 9 12 12 9 10 10
4 6 5 3 2 1 1 3 2 4 4 1 3 2 3 2 2 2 3 3 2 6 4 3 3 2 3 6 5 8 8 8 8 8 8 10 8 9 6 7 9 14 19 20
2 3 4 1 2 3 5 5 3 3 1 0 1 1 2 1 2 3 3 5 5 3 3 4 3 1 1 2 4 6 7 8 8 11 18 18 18 20 16 12 17 19 19 19
3 0 4 4 4 4 4 3 2 2 2 2 2 2 2 2 3 3 5 5 2 4 4 4 1 2 2 2 4 4 4 7 8 7 7 7 12 15 21 15 19 18 18 21
2 2 4 5 3 2 2 1 1 1 2 3 3 2 2 3 5 4 4 4 5 4 4 4 4 4 3 5 9 10 10 9 7 7 7 9 14 14 19 24 20 21 21 19
2 3 2 2 1 3 1 1 2 2 2 1 1 3 3 5 4 5 7 4 4 3 2 3 2 3 4 8 12 13 13 14 11 12 13 13 15 14 19 24 21 22 19 20
5 6 2 3 2 4 3 4 4 7 3 3 3 6 7 2 3 4 3 4 2 6 10 4 7 8 9 10 9 10 14 13 15 15 14 16 20 20 16 12 19 20 23 25
Wind_Direction
356 359 2 2 1 4 5 38 41 351 1 49 42 64 125 167 167 106 98 103 109 162 147 102 333 229 232 168 148 118 142 135 212 214 298 178 180 196 169 152 207 228 274 272
354 358 0 2 2 3 3 53 278 351 358 92 49 152 87 91 132 179 137 151 177 122 150 82 190 209 4 161 143 160 179 4 344 343 18 15 242 201 184 111 96 204 166 261
350 356 358 1 1 360 27 54 18 339 46 26 114 125 142 139 94 143 158 164 123 131 169 213 202 230 172 183 174 155 123 169 193 199 202 152 224 209 200 182 196 194 227 281
347 350 355 358 1 3 13 31 90 169 339 6 69 84 154 128 195 262 174 173 208 177 176 184 213 202 179 198 203 128 150 225 186 249 246 236 251 249 205 212 223 216 1 237
340 342 347 359 4 4 62 76 62 27 17 321 57 3 212 176 176 154 247 222 183 191 194 194 204 165 202 201 155 164 225 257 173 276 258 223 255 240 230 229 231 250 258 276
328 331 341 356 9 12 75 94 109 103 357 1 15 259 169 239 191 198 178 189 154 214 241 218 214 199 177 186 163 187 164 164 97 267 322 300 280 234 214 209 213 224 239 247
314 322 333 352 10 24 41 69 116 86 305 47 260 356 245 239 202 254 146 161 164 257 109 112 58 341 246 182 219 155 150 148 175 277 339 284 263 208 198 201 230 218 243 256
295 307 316 335 1 12 14 32 112 123 229 208 298 252 232 295 297 245 236 208 197 204 47 17 339 327 328 4 20 196 165 146 251 247 245 294 292 200 145 174 275 216 225 245
275 290 295 304 322 334 340 326 125 117 114 241 212 229 211 247 249 324 244 68 135 77 107 122 224 246 252 258 66 26 108 114 204 139 225 249 247 198 179 147 291 226 196 231
282 277 280 287 287 285 293 265 210 141 168 254 162 202 212 144 131 247 299 227 103 13 124 176 200 239 189 241 185 154 161 208 224 223 256 279 243 201 127 17 247 173 184 224
267 272 278 280 268 254 274 264 229 197 193 271 195 223 186 153 168 228 177 342 1 67 184 192 218 199 224 245 171 178 176 171 195 196 233 268 160 98 167 224 297 276 205 211
272 274 278 264 252 260 258 246 247 219 199 253 243 243 249 240 216 162 210 247 161 218 187 251 306 242 216 200 241 327 226 197 184 194 213 270 229 248 240 169 213 252 236 264
284 283 276 252 205 248 238 233 195 156 279 275 326 230 242 231 232 235 179 229 205 203 142 158 215 236 152 212 234 212 244 169 228 64 239 251 256 250 256 245 248 268 267 268
292 290 297 308 343 259 269 230 238 201 152 248 277 288 259 254 219 219 214 225 102 114 153 205 206 211 192 231 264 205 216 145 238 260 276 279 279 271 266 267 266 263 272 253
307 314 309 306 305 287 271 266 256 235 219 245 265 313 286 258 235 222 228 229 216 175 184 214 222 225 240 203 231 214 192 249 252 257 266 278 283 279 301 270 281 284 283 287
319 321 322 312 312 309 334 327 6 253 228 265 302 286 263 10 58 220 221 205 185 182 187 201 214 223 217 248 235 208 212 231 242 259 275 277 283 286 287 292 293 291 278 275
286 296 301 305 308 295 216 216 302 93 98 38 298 271 282 258 82 31 82 186 200 193 216 219 195 200 200 250 267 248 244 255 275 282 292 283 276 283 298 286 292 300 293 287
292 283 286 293 293 276 260 256 263 243 209 187 248 257 309 158 218 237 148 151 202 221 242 244 217 206 199 254 245 271 272 281 278 271 270 272 284 301 291 297 303 298 297 296
307 298 295 283 217 202 218 235 237 213 223 225 216 204 243 142 170 124 223 192 219 199 222 224 162 186 227 245 346 289 273 259 281 300 283 283 263 281 295 298 295 282 297 302
306 289 169 345 170 276 273 189 195 163 209 231 233 210 240 141 156 174 274 196 235 235 223 157 221 249 261 314 309 302 315 313 304 299 318 342 307 293 297 301 297 290 291 297
27 14 234 312 310 304 223 237 196 184 227 205 236 212 236 190 182 203 198 218 222 244 244 193 235 253 283 344 1 351 345 344 346 321 312 308 289 299 313 320 316 303 298 300
325 308 297 306 275 244 200 220 257 213 230 210 224 231 212 229 216 176 199 227 187 243 157 222 254 255 333 355 358 6 357 355 354 356 339 342 332 305 289 301 312 311 312 318
324 38 14 43 289 234 202 213 251 219 257 270 163 265 281 216 196 233 229 231 233 117 206 222 220 305 286 17 17 12 340 338 8 5 353 347 333 340 341 320 319 329 315 326
92 21 267 212 216 236 208 190 200 272 89 162 204 241 227 211 222 239 239 236 151 227 212 211 241 253 293 319 274 266 306 310 283 273 293 309 316 318 319 317 313 318 313 317
171 167 235 227 234 281 263 249 80 244 269 295 299 247 230 205 253 216 248 244 228 199 218 180 199 185 261 294 304 279 268 264 269 276 286 293 297 298 301 309 315 309 310 314
197 222 251 217 62 284 270 200 230 205 180 12 43 316 288 242 221 207 227 250 231 253 221 247 194 194 268 257 255 269 262 261 265 266 265 277 282 280 282 295 296 298 305 305
207 222 196 173 196 215 227 187 227 185 162 213 202 194 239 302 257 241 219 218 275 312 317 281 225 237 256 253 250 264 263 261 267 259 267 267 280 279 277 282 294 299 308 308